Home   Weather   Sandefjord   Past weeks

Flag for Norway Past Weather in Sandefjord, Norway — Yesterday and Last 2 Weeks

Now
57 °F

Passing clouds.


Feels Like: 56 °F
Forecast: 45 / 55 °F
Wind: 6 mph from Southwest

Location: Torp

Current Time: Oct 1, 2016 at 3:59:20 PM

Latest Report: Oct 1, 2016 at 3:20 PM


Visibility: N/A

Pressure: 29.74 "Hg

Humidity: 51%

Dew Point: 39 °F

Location of SandefjordLocation

Past Weather in Sandefjord — Graph

°F

Sandefjord Temperature Yesterday

Maximum temperature yesterday: 57 °F (at 1:50 PM)
Minimum temperature yesterday: 46 °F (at 11:50 PM)
Average temperature yesterday: 52 °F

High & Low Weather Summary for the Past Weeks

 TemperatureHumidityPressure
High70 °F (Sep 20, 3:50 PM)100% (Sep 16, 2:50 PM)30.24 "Hg (Sep 16, 2:50 PM)
Low41 °F (Oct 1, 6:50 AM)44% (Sep 30, 2:50 PM)29.09 "Hg (Sep 29, 6:20 PM)
Average56 °F87%29.97 "Hg
* Reported Sep 16 2:20 PM — Oct 1 2:50 PM, Sandefjord, Weather by CustomWeather, © 2016

Note: Actual official high and low records may vary slightly from our data, if they occured in-between our weather recording intervals... More about our weather records

Advertising

Sandefjord Weather History for the Previous 24 Hours

Scroll right to see more
 ConditionsComfort  
Time TempWeatherWind HumidityBarometerVisibility
2:50 PM
Sat, Oct 1
57 °FSunny.8 mph48%29.74 "Hg10 mi
2:20 PM57 °FPassing clouds.8 mph44%29.74 "HgN/A
1:50 PM57 °FPassing clouds.6 mph48%29.74 "HgN/A
1:20 PM57 °FPassing clouds.3 mph48%29.74 "HgN/A
12:50 PM55 °FPassing clouds.5 mph55%29.74 "HgN/A
12:20 PM55 °FPassing clouds.5 mph55%29.74 "HgN/A
11:50 AM54 °FPassing clouds.7 mph58%29.74 "HgN/A
11:20 AM54 °FSunny.6 mph58%29.74 "Hg10 mi
10:50 AM52 °FPassing clouds.8 mph67%29.74 "HgN/A
10:20 AM50 °FPassing clouds.7 mph71%29.71 "HgN/A
9:50 AM48 °FSunny.7 mph76%29.71 "Hg10 mi
9:20 AM46 °FSunny.7 mph82%29.71 "Hg10 mi
8:50 AM45 °FSunny.6 mph87%29.68 "Hg10 mi
8:20 AM43 °FPassing clouds.5 mph100%29.68 "HgN/A
7:50 AM43 °FSunny.6 mph93%29.68 "Hg10 mi
7:20 AM41 °FClear.5 mph100%29.65 "Hg10 mi
6:50 AM41 °FClear.6 mph100%29.65 "Hg10 mi
6:20 AM43 °FClear.9 mph93%29.65 "Hg10 mi
5:50 AM43 °FClear.6 mph93%29.62 "Hg10 mi
5:20 AM43 °FQuite cool.7 mph100%29.62 "HgN/A
4:50 AM45 °FQuite cool.9 mph93%29.62 "HgN/A
4:20 AM45 °FQuite cool.8 mph93%29.62 "HgN/A
3:50 AM45 °FQuite cool.5 mph87%29.62 "HgN/A
3:20 AM45 °FQuite cool.3 mph87%29.59 "HgN/A
2:50 AM46 °FCool.3 mph82%29.59 "HgN/A
2:20 AM46 °FCool.12 mph82%29.59 "HgN/A
1:50 AM46 °FCool.12 mph82%29.59 "HgN/A
1:20 AM45 °FQuite cool.5 mph87%29.56 "HgN/A
12:50 AM46 °FCool.8 mph76%29.56 "HgN/A
12:20 AM46 °FPassing clouds.No wind82%29.56 "HgN/A
11:50 PM
Fri, Sep 30
46 °FPartly cloudy.9 mph82%29.53 "HgN/A
11:20 PM48 °FPassing clouds.12 mph71%29.53 "HgN/A
10:50 PM48 °FClear.15 mph71%29.53 "Hg10 mi
10:20 PM48 °FClear.13 mph71%29.53 "Hg10 mi
9:50 PM48 °FClear.8 mph71%29.53 "Hg10 mi
9:20 PM50 °FClear.6 mph67%29.50 "Hg10 mi
8:50 PM50 °FClear.9 mph67%29.50 "Hg10 mi
8:20 PM50 °FClear.8 mph67%29.50 "Hg10 mi
7:50 PM52 °FClear.10 mph58%29.47 "Hg10 mi
7:20 PM52 °FPassing clouds.10 mph58%29.47 "HgN/A
6:50 PM54 °FSunny.6 mph54%29.47 "Hg10 mi
6:20 PM55 °FSunny.13 mph51%29.47 "Hg10 mi
5:50 PM55 °FSunny.12 mph47%29.47 "Hg10 mi
5:20 PM55 °FSunny.12 mph47%29.47 "Hg10 mi
4:50 PM57 °FPassing clouds.13 mph48%29.47 "HgN/A
4:20 PM57 °FPassing clouds.16 mph48%29.47 "HgN/A
3:50 PM57 °FSunny.17 mph48%29.47 "Hg10 mi
3:20 PM57 °FPassing clouds.20 mph48%29.47 "HgN/A
Weather by CustomWeather, © 2016

See weather overviewHow to use our weather pages